Date String (YYYY-MM-DD hh:mm:ss) UTC,Instrument flags,Ambient pressure (hPa),Sample flow (lpm),Bypass flow (lpm),Sample temperature (°C),Ambient temperature (°C),ASC tube jacket temperature (°C),LED temperature (°C),Box temperature (°C),Sample RH (%),Span deviation,Mass concentration (μg/m³),Mass concentration (μg/m³),Mass concentration (μg/m³)
DateTimeUTC,F1_M11,P_M11,Q1_M11,Q2_M11,T1_M11,T2_M11,T3_M11,T4_M11,T5_M11,U1_M11,ZSPAN_M11,X0_M11,X2_M11,X1_M11
2022-12-05 22:00:00,,0816.5,4.99,0.00,24.9,23.5,00.0,33.8,26.7,11.2,0000.0,0002.66,0000.97,0000.58
2022-12-05 22:01:00,,0816.7,5.00,0.00,24.8,23.4,00.0,33.8,26.7,11.3,0000.0,0002.67,0000.99,0000.60
2022-12-05 22:02:00,,0816.7,5.00,0.00,24.8,23.5,00.0,33.8,26.7,11.2,0000.0,0002.55,0000.98,0000.59
2022-12-05 22:03:00,,0816.6,5.01,0.00,24.9,23.5,00.0,33.8,26.8,11.3,0000.0,0002.22,0000.98,0000.60
2022-12-05 22:04:00,,0816.5,5.01,0.00,24.9,23.5,00.0,33.8,26.8,11.2,0000.0,0002.13,0000.95,0000.59
2022-12-05 22:05:00,,0816.6,5.00,0.00,24.9,23.6,00.0,33.8,26.7,11.1,0000.0,0002.22,0000.96,0000.60
2022-12-05 22:06:00,,0816.8,5.00,0.00,24.8,23.6,00.0,33.8,26.7,11.1,0000.0,0002.14,0000.93,0000.61
2022-12-05 22:07:00,,0817.2,4.99,0.00,24.8,23.5,00.0,33.8,26.7,11.0,0000.0,0002.02,0000.90,0000.61
2022-12-05 22:08:00,,0817.0,5.00,0.00,24.8,23.5,00.0,33.8,26.7,11.1,0000.0,0001.94,0000.92,0000.61
2022-12-05 22:09:00,,0816.7,5.00,0.00,24.8,23.5,00.0,33.8,26.7,11.2,0000.0,0001.62,0000.93,0000.63
2022-12-05 22:10:00,,0816.9,5.00,0.00,24.8,23.4,00.0,33.8,26.7,11.3,0000.0,0001.57,0000.92,0000.64
2022-12-05 22:11:00,,0816.8,5.00,0.00,24.8,23.4,00.0,33.8,26.7,11.4,0000.0,0001.47,0000.89,0000.65
2022-12-05 22:12:00,,0816.9,5.00,0.00,24.8,23.4,00.0,33.8,26.7,11.3,0000.0,0001.43,0000.88,0000.65
2022-12-05 22:13:00,,0817.3,5.01,0.00,24.8,23.4,00.0,33.8,26.7,11.2,0000.0,0001.41,0000.89,0000.67
2022-12-05 22:14:00,,0817.1,5.01,0.00,24.8,23.4,00.0,33.8,26.7,11.3,0000.0,0001.40,0000.89,0000.68
2022-12-05 22:15:00,,0816.9,4.99,0.00,24.8,23.5,00.0,33.7,26.7,11.3,0000.0,0001.63,0000.95,0000.70
2022-12-05 22:16:00,,0816.9,4.99,0.00,24.8,23.5,00.0,33.7,26.7,11.4,0000.0,0002.55,0000.99,0000.70
2022-12-05 22:17:00,,0816.9,5.01,0.00,24.8,23.5,00.0,33.7,26.7,11.5,0000.0,0002.53,0000.99,0000.70
2022-12-05 22:18:00,,0817.0,5.01,0.00,24.8,23.5,00.0,33.7,26.7,11.7,0000.0,0002.73,0001.06,0000.71
2022-12-05 22:19:00,,0817.0,5.00,0.00,24.8,23.5,00.0,33.7,26.6,11.7,0000.0,0002.91,0001.09,0000.72
2022-12-05 22:20:00,,0816.9,4.99,0.00,24.8,23.5,00.0,33.7,26.7,11.7,0000.0,0003.02,0001.13,0000.73
2022-12-05 22:21:00,,0817.0,4.99,0.00,24.8,23.5,00.0,33.7,26.7,11.8,0000.0,0002.97,0001.11,0000.73
2022-12-05 22:22:00,,0816.9,5.00,0.00,24.8,23.6,00.0,33.7,26.7,11.8,0000.0,0003.05,0001.13,0000.74
2022-12-05 22:23:00,,0817.0,5.01,0.00,24.8,23.6,00.0,33.7,26.7,11.7,0000.0,0003.09,0001.14,0000.74
2022-12-05 22:24:00,,0816.9,5.01,0.00,24.8,23.6,00.0,33.7,26.7,11.6,0000.0,0003.17,0001.17,0000.74
2022-12-05 22:25:00,,0816.9,5.00,0.00,24.8,23.5,00.0,33.7,26.7,11.6,0000.0,0003.23,0001.19,0000.74
2022-12-05 22:26:00,,0817.0,5.00,0.00,24.8,23.5,00.0,33.7,26.7,11.7,0000.0,0003.33,0001.15,0000.75
2022-12-05 22:27:00,,0817.0,5.00,0.00,24.8,23.5,00.0,33.7,26.7,11.7,0000.0,0002.87,0001.12,0000.76
2022-12-05 22:28:00,,0817.2,5.00,0.00,24.8,23.6,00.0,33.7,26.7,11.6,0000.0,0002.83,0001.14,0000.76
2022-12-05 22:29:00,,0817.2,5.00,0.00,24.8,23.6,00.0,33.7,26.7,11.6,0000.0,0002.79,0001.14,0000.77
2022-12-05 22:30:00,,0817.2,5.00,0.00,24.8,23.6,00.0,33.7,26.7,11.7,0000.0,0002.62,0001.11,0000.76
2022-12-05 22:31:00,,0817.2,5.00,0.00,24.9,23.7,00.0,33.7,26.8,11.6,0000.0,0002.58,0001.12,0000.77
2022-12-05 22:32:00,,0817.2,4.99,0.00,24.9,23.7,00.0,33.7,26.8,11.7,0000.0,0002.85,0001.19,0000.78
2022-12-05 22:33:00,,0817.2,4.99,0.00,24.9,23.8,00.0,33.8,26.8,13.0,0000.0,0003.00,0001.24,0000.81
2022-12-05 22:34:00,,0817.2,5.00,0.00,24.9,23.8,00.0,33.8,26.8,14.8,0000.0,0003.58,0001.49,0000.99
2022-12-05 22:35:00,,0817.1,5.00,0.00,24.9,23.9,00.0,33.8,26.9,15.0,0000.0,0004.94,0001.77,0001.22
2022-12-05 22:36:00,,0817.1,5.01,0.00,25.0,23.9,00.0,33.8,26.9,15.3,0000.0,0006.01,0001.99,0001.42
2022-12-05 22:37:00,,0817.1,5.00,0.00,25.0,24.0,00.0,33.8,26.9,15.5,0000.0,0006.17,0002.29,0001.64
2022-12-05 22:38:00,,0817.1,5.00,0.00,25.0,24.0,00.0,33.8,27.0,15.3,0000.0,0006.65,0002.66,0001.88
2022-12-05 22:39:00,,0817.1,5.00,0.00,25.0,24.0,00.0,33.8,27.0,14.9,0000.0,0007.27,0002.94,0002.09
2022-12-05 22:40:00,,0817.1,5.00,0.00,25.0,24.1,00.0,33.9,27.0,15.3,0000.0,0008.05,0003.13,0002.30
2022-12-05 22:41:00,,0817.1,5.00,0.00,25.1,24.1,00.0,33.9,27.0,15.1,0000.0,0008.45,0003.29,0002.51
2022-12-05 22:42:00,,0817.1,5.00,0.00,25.1,24.1,00.0,33.9,27.0,14.9,0000.0,0008.80,0003.42,0002.71
2022-12-05 22:43:00,,0817.0,5.00,0.00,25.1,24.0,00.0,33.9,27.0,15.2,0000.0,0008.99,0003.55,0002.94
2022-12-05 22:44:00,,0817.0,4.99,0.00,25.1,23.9,00.0,33.9,27.0,16.0,0000.0,0009.71,0003.68,0003.13
2022-12-05 22:45:00,,0817.1,5.01,0.00,25.1,23.9,00.0,33.9,27.0,16.1,0000.0,0010.30,0003.72,0003.17
2022-12-05 22:46:00,,0817.1,5.01,0.00,25.1,24.0,00.0,33.9,27.1,16.1,0000.0,0009.91,0003.76,0003.19
2022-12-05 22:47:00,,0817.1,5.00,0.00,25.1,24.0,00.0,33.9,27.0,16.1,0000.0,0009.63,0003.81,0003.22
2022-12-05 22:48:00,,0817.1,4.99,0.00,25.1,24.0,00.0,34.0,27.0,16.1,0000.0,0009.89,0003.80,0003.24
2022-12-05 22:49:00,,0817.2,5.00,0.00,25.1,24.0,00.0,34.0,27.0,16.1,0000.0,0010.39,0003.78,0003.25
2022-12-05 22:50:00,,0817.1,5.00,0.00,25.1,24.0,00.0,34.0,27.1,16.1,0000.0,0010.19,0003.80,0003.28
2022-12-05 22:51:00,,0817.1,5.00,0.00,25.1,23.9,00.0,34.0,27.1,16.1,0000.0,0009.83,0003.83,0003.32
2022-12-05 22:52:00,,0817.1,5.01,0.00,25.1,23.9,00.0,34.0,27.1,16.1,0000.0,0009.65,0003.86,0003.36
2022-12-05 22:53:00,,0817.2,5.00,0.00,25.1,23.9,00.0,34.0,27.0,16.1,0000.0,0009.55,0003.90,0003.39
2022-12-05 22:54:00,,0817.2,5.01,0.00,25.1,23.8,00.0,34.0,27.0,16.2,0000.0,0009.46,0003.90,0003.41
2022-12-05 22:55:00,,0817.3,4.99,0.00,25.1,23.7,00.0,34.0,27.0,16.3,0000.0,0009.03,0003.91,0003.42
2022-12-05 22:56:00,,0817.4,4.99,0.00,25.1,23.7,00.0,34.0,27.0,16.3,0000.0,0008.43,0003.90,0003.41
2022-12-05 22:57:00,,0817.4,5.00,0.00,25.1,23.7,00.0,34.0,27.0,16.3,0000.0,0008.97,0003.85,0003.41
2022-12-05 22:58:00,,0817.4,5.00,0.00,25.1,23.7,00.0,34.0,27.0,16.2,0000.0,0009.62,0003.85,0003.42
2022-12-05 22:59:00,,0817.4,5.00,0.00,25.1,23.6,00.0,34.0,27.0,16.2,0000.0,0009.31,0003.87,0003.42
